Starlink 35730

operational
NORAD ID: 66274 Int'l Des: 2025-247 Owner: SPXS Country: US Constellation: starlink
NOTLE

Über Starlink 35730

Beschreibung wird geladen...

Live-Position

3D-Globus wird geladen...

Nächste Überflüge

Höhenverlauf

Altitude vs Time

uPlot chart will show altitude changes over time

Zweizeiliger Elementsatz

1 66274C 25247J 25305.06645833 .00476400 00000+0 71746-3 0 3054
2 66274 53.1568 79.7601 0008769 261.1290 317.9838 16.03357941 15
Epoch: 1. Nov. 2025 • Age: 66 hours

Aktueller Status

Höhe 258.8 km
Geschwindigkeit 7.75 km/s
Subsatellitenpunkt 4.32°N, 65.83°W
Startdatum 31. Okt. 2025
Alter 2 days
Typ internet

Technische Details

Klassifizierung Payload
Masse 575.00 kg
Trockenmasse 530.00 kg
Gesamtmasse 575.00 kg
Länge 0.30 m
Durchmesser 4.10 m
Spannweite 29.00 m
Form Box + pan
Hersteller SPXS
Bus-Typ Starlink V2MO
Phasenstatus In Orbit
Besitzer/Staat SPXS/US

Große Konstellationen

Loading constellations...